Location: Unspecified
(0.0000°N, 0.0000°E)
Time: 20:45:06
(UTC+00:00)

IRIDIUM 116 - Visible Passes

Search period start: 14 January 2025 00:00
Search period end: 24 January 2025 00:00
Orbit: 776 x 779 km, 86.4° (Epoch: 14 January)

Date Brightness Start Highest point End Pass type
(mag) Time Alt. Az. Time Alt. Az. Time Alt. Az.
14 Jan ? 03:14:43 10° ESE 03:17:36 15° E 03:19:09 13° ENE visible
14 Jan ? 04:53:30 10° SSW 04:58:01 30° W 04:59:32 26° WNW visible
15 Jan ? 04:19:23 10° S 04:24:33 68° W 04:24:52 66° WNW visible
16 Jan ? 03:46:01 10° SSE 03:50:19 49° ESE 03:50:19 49° ESE visible
17 Jan ? 03:13:29 10° SE 03:15:51 20° ESE 03:15:51 20° ESE visible
17 Jan ? 04:54:29 10° SW 04:56:16 16° WSW 04:56:16 16° WSW visible
18 Jan ? 04:19:43 10° SSW 04:21:53 23° SW 04:21:53 23° SW visible
19 Jan ? 03:45:55 10° S 03:47:35 21° S 03:47:35 21° S visible
20 Jan ? 03:12:50 10° SSE 03:13:21 13° SSE 03:13:21 13° SSE visible
